Alma, MI

6:05 PM EDT on August 18, 2019 (GMT -0400)
Gratiot Community

Weather History for KAMN - July, 2019

Change the Weather History Date:

Tuesday, July 16, 2019

  Actual Average Record
Temperature  
Mean Temperature 76 °F -  
Max Temperature 83 °F 83 °F 97 °F (1977)
Min Temperature 70 °F 59 °F 46 °F (1987)
Cooling Degree Days 12    
Growing Degree Days 26 (Base 50)    
Moisture  
Dew Point 68 °F    
Average Humidity 71    
Maximum Humidity 90    
Minimum Humidity 55    
Precipitation  
Precipitation 0.00 in - - ()
Sea Level Pressure  
Sea Level Pressure 29.94 in    
Wind  
Wind Speed 8 mph (SSW)    
Max Wind Speed 13 mph    
Max Gust Speed 18 mph    
Visibility 10 miles    
Events Rain    
Averages and records for this station are not official NWS values.
T = Trace of Precipitation, MM = Missing Value Source: NWS Daily Summary

Daily Weather History Graph

Daily Weather History Graph

Search for Another Location

Airport or City:

Astronomy

Jul. 16, 2019 Rise Set
Actual Time 6:12 AM EDT 9:16 PM EDT
Civil Twilight 5:38 AM EDT 9:50 PM EDT
Nautical Twilight 4:54 AM EDT 10:34 PM EDT
Astronomical Twilight 4:02 AM EDT 11:26 PM EDT
Moon 9:22 PM EDT (7/16) 5:49 AM EDT (7/16)
Length of Visible Light 16h 11m
Length of Day
15h 03m
Full, 100% of the Moon is Illuminated
Jul 16
Full
Jul 16
Full
Jul 24
Last Quarter
Jul 31
New
Aug 7
First Quarter

Hourly Weather History & Observations

Time (EDT) Temp. Heat Index Dew Point Humidity Pressure Visibility Wind Dir Wind Speed Gust Speed Precip Events Conditions
12:19 AM 80.8 °F 82.2 °F 63.9 °F 56% 30.00 in 10.0 mi SW 9.2 mph - N/A   Clear
12:37 AM 80.8 °F 82.2 °F 63.9 °F 56% 30.00 in 10.0 mi SW 8.1 mph - N/A   Clear
12:55 AM 80.4 °F 82.0 °F 63.9 °F 57% 29.99 in 10.0 mi SW 8.1 mph - N/A   Clear
12:56 AM 80.4 °F 82.0 °F 63.9 °F 57% 29.99 in 10.0 mi SW 9.2 mph - N/A   Clear
1:15 AM 80.2 °F 81.6 °F 63.1 °F 56% 29.99 in 10.0 mi SW 9.2 mph - N/A   Clear
1:16 AM 80.2 °F 81.6 °F 63.1 °F 56% 29.99 in 10.0 mi SW 9.2 mph - N/A   Clear
1:35 AM 79.7 °F - 62.6 °F 56% 29.99 in 10.0 mi SW 10.4 mph - N/A   Clear
1:40 AM 79.9 °F - 62.6 °F 55% 29.98 in 10.0 mi SW 9.2 mph - N/A   Clear
1:58 AM 79.0 °F - 62.6 °F 57% 29.98 in 10.0 mi SW 8.1 mph - N/A   Clear
2:16 AM 77.9 °F - 62.6 °F 59% 29.97 in 10.0 mi SW 8.1 mph - N/A   Clear
2:35 AM 77.2 °F - 63.0 °F 61% 29.98 in 10.0 mi SW 6.9 mph - N/A   Clear
2:55 AM 77.2 °F - 62.8 °F 61% 29.97 in 10.0 mi SW 5.8 mph - N/A   Clear
3:19 AM 76.5 °F - 62.6 °F 62% 29.96 in 10.0 mi SW 6.9 mph - N/A   Clear
3:37 AM 76.1 °F - 62.6 °F 63% 29.96 in 10.0 mi SW 8.1 mph - N/A   Clear
3:55 AM 75.2 °F - 62.4 °F 64% 29.96 in 10.0 mi SW 5.8 mph - N/A   Clear
3:56 AM 75.2 °F - 62.6 °F 65% 29.96 in 10.0 mi SW 5.8 mph - N/A   Clear
4:15 AM 74.5 °F - 62.2 °F 66% 29.95 in 10.0 mi SSW 5.8 mph - N/A   Clear
4:16 AM 74.5 °F - 62.2 °F 66% 29.95 in 10.0 mi SSW 6.9 mph - N/A   Clear
4:35 AM 73.4 °F - 62.6 °F 69% 29.95 in 10.0 mi SW 5.8 mph - N/A   Clear
4:58 AM 72.5 °F - 62.8 °F 71% 29.96 in 10.0 mi SW 3.5 mph - N/A   Clear
5:16 AM 71.8 °F - 63.3 °F 75% 29.96 in 10.0 mi SSW 5.8 mph - N/A   Clear
5:35 AM 71.6 °F - 63.5 °F 76% 29.95 in 10.0 mi SSW 5.8 mph - N/A   Clear
5:55 AM 71.6 °F - 63.5 °F 76% 29.95 in 10.0 mi South 5.8 mph - N/A   Clear
6:19 AM 71.1 °F - 63.7 °F 77% 29.95 in 10.0 mi Calm Calm - N/A   Clear
6:37 AM 70.7 °F - 64.0 °F 79% 29.95 in 10.0 mi South 8.1 mph - N/A   Clear
6:55 AM 71.6 °F - 64.4 °F 78% 29.94 in 10.0 mi South 8.1 mph - N/A   Clear
7:15 AM 72.5 °F - 64.8 °F 77% 29.94 in 10.0 mi SSW 8.1 mph - N/A   Clear
7:35 AM 73.6 °F - 64.9 °F 74% 29.95 in 10.0 mi SSW 8.1 mph - N/A   Clear
7:40 AM 73.9 °F - 64.9 °F 73% 29.95 in 10.0 mi SSW 8.1 mph - N/A   Clear
7:58 AM 75.4 °F - 65.1 °F 70% 29.95 in 10.0 mi SW 6.9 mph - N/A   Clear
8:16 AM 76.6 °F - 65.3 °F 68% 29.96 in 10.0 mi WSW 8.1 mph - N/A   Clear
8:35 AM 77.9 °F - 66.0 °F 67% 29.96 in 10.0 mi SW 8.1 mph - N/A   Scattered Clouds
8:36 AM 77.9 °F - 66.0 °F 67% 29.96 in 10.0 mi SSW 8.1 mph - N/A   Scattered Clouds
8:55 AM 78.8 °F - 66.2 °F 65% 29.96 in 10.0 mi SW 11.5 mph 18.4 mph N/A   Scattered Clouds
8:56 AM 78.8 °F - 66.2 °F 65% 29.96 in 10.0 mi SW 11.5 mph 18.4 mph N/A   Scattered Clouds
9:19 AM 79.3 °F - 66.7 °F 65% 29.96 in 10.0 mi SW 12.7 mph 18.4 mph N/A   Scattered Clouds
9:37 AM 79.7 °F - 67.5 °F 66% 29.97 in 10.0 mi WSW 9.2 mph 17.3 mph N/A   Overcast
9:55 AM 79.0 °F - 67.8 °F 69% 29.97 in 10.0 mi SW 5.8 mph - N/A   Overcast
9:56 AM 79.0 °F - 67.8 °F 69% 29.97 in 10.0 mi SW 6.9 mph - N/A   Overcast
10:15 AM 79.3 °F - 68.0 °F 68% 29.96 in 10.0 mi SW 6.9 mph - N/A   Overcast
10:35 AM 79.2 °F - 68.7 °F 70% 29.96 in 10.0 mi SW 9.2 mph - N/A   Overcast
10:58 AM 79.7 °F - 69.3 °F 70% 29.97 in 10.0 mi SW 6.9 mph - N/A   Overcast
11:16 AM 81.0 °F 84.2 °F 69.6 °F 68% 29.97 in 10.0 mi SW 11.5 mph 16.1 mph N/A   Overcast
11:35 AM 81.5 °F 84.9 °F 69.8 °F 67% 29.96 in 10.0 mi SSW 8.1 mph - N/A   Overcast
11:36 AM 81.5 °F 84.9 °F 69.8 °F 67% 29.96 in 10.0 mi SSW 9.2 mph - N/A   Overcast
11:55 AM 80.6 °F 83.9 °F 70.0 °F 70% 29.97 in 10.0 mi SSW 10.4 mph - N/A   Overcast
11:56 AM 80.4 °F 83.6 °F 70.0 °F 70% 29.97 in 10.0 mi SSW 9.2 mph - N/A   Overcast
12:19 PM 79.7 °F - 70.0 °F 72% 29.97 in 10.0 mi SW 8.1 mph - N/A   Overcast
12:37 PM 81.7 °F 85.4 °F 70.0 °F 68% 29.96 in 10.0 mi SW 11.5 mph 17.3 mph N/A   Overcast
12:55 PM 81.5 °F 85.1 °F 70.2 °F 68% 29.96 in 10.0 mi SSW 9.2 mph - N/A   Overcast
1:15 PM 82.4 °F 86.3 °F 70.2 °F 66% 29.96 in 10.0 mi WSW 10.4 mph - N/A   Overcast
1:35 PM 82.6 °F 86.4 °F 69.6 °F 65% 29.95 in 10.0 mi WSW 9.2 mph - N/A   Overcast
1:40 PM 82.6 °F 86.6 °F 70.0 °F 66% 29.95 in 10.0 mi WSW 9.2 mph - N/A   Overcast
1:58 PM 81.7 °F 85.8 °F 70.9 °F 70% 29.95 in 10.0 mi SW 6.9 mph - N/A   Overcast
2:16 PM 83.3 °F 87.6 °F 70.3 °F 65% 29.94 in 10.0 mi SW 8.1 mph - N/A   Mostly Cloudy
2:35 PM 83.3 °F 87.4 °F 70.0 °F 64% 29.94 in 10.0 mi WSW 5.8 mph - N/A   Overcast
2:36 PM 83.1 °F 87.1 °F 70.0 °F 64% 29.94 in 10.0 mi WSW 6.9 mph - N/A   Overcast
2:55 PM 82.8 °F 87.4 °F 71.2 °F 68% 29.94 in 10.0 mi SW 5.8 mph - N/A   Overcast
2:56 PM 82.9 °F 87.7 °F 71.2 °F 68% 29.94 in 10.0 mi SW 4.6 mph - N/A   Overcast
3:19 PM 81.9 °F 86.2 °F 71.2 °F 70% 29.93 in 10.0 mi South 5.8 mph - N/A   Overcast
3:37 PM 79.9 °F - 72.0 °F 77% 29.93 in 10.0 mi SW 6.9 mph - N/A Rain Light Rain
3:55 PM 77.9 °F - 72.0 °F 82% 29.93 in 10.0 mi SSW 9.2 mph - N/A   Light Drizzle
4:35 PM 78.8 °F - 72.1 °F 80% 29.92 in 10.0 mi SSW 4.6 mph - N/A   Clear
4:58 PM 79.7 °F - 72.9 °F 80% 29.91 in 10.0 mi SSW 3.5 mph - N/A   Light Drizzle
5:16 PM 80.6 °F 84.7 °F 72.0 °F 75% 29.90 in 10.0 mi SW 8.1 mph - N/A   Scattered Clouds
5:35 PM 81.5 °F 85.9 °F 71.6 °F 72% 29.90 in 10.0 mi SW 10.4 mph - N/A   Clear
5:55 PM 80.6 °F 84.6 °F 71.6 °F 74% 29.89 in 10.0 mi South 9.2 mph - N/A   Clear
5:56 PM 80.8 °F 84.7 °F 71.6 °F 73% 29.89 in 10.0 mi South 9.2 mph - N/A   Clear
6:19 PM 81.7 °F 86.3 °F 71.8 °F 72% 29.89 in 10.0 mi South 4.6 mph - N/A   Clear
6:37 PM 81.5 °F 85.9 °F 71.8 °F 72% 29.89 in 10.0 mi SSW 3.5 mph - N/A   Clear
6:55 PM 82.0 °F 87.0 °F 72.1 °F 72% 29.89 in 10.0 mi SSW 4.6 mph - N/A   Clear
7:15 PM 81.7 °F 86.7 °F 72.7 °F 74% 29.89 in 10.0 mi South 5.8 mph - N/A   Scattered Clouds
7:35 PM 81.7 °F 86.7 °F 72.7 °F 74% 29.89 in 10.0 mi South 3.5 mph - N/A   Clear
7:58 PM 79.9 °F - 72.7 °F 79% 29.89 in 10.0 mi South 4.6 mph - N/A   Clear
8:16 PM 79.3 °F - 72.1 °F 79% 29.89 in 10.0 mi South 4.6 mph - N/A   Clear
8:35 PM 78.8 °F - 72.1 °F 80% 29.89 in 10.0 mi South 5.8 mph - N/A   Clear
8:55 PM 78.6 °F - 72.5 °F 81% 29.89 in 10.0 mi SSW 4.6 mph - N/A   Clear
9:19 PM 77.9 °F - 72.5 °F 83% 29.90 in 10.0 mi SSW 6.9 mph - N/A   Clear
9:37 PM 77.4 °F - 72.5 °F 85% 29.90 in 10.0 mi SSW 5.8 mph - N/A   Clear
9:55 PM 77.0 °F - 72.1 °F 85% 29.90 in 10.0 mi SSW 4.6 mph - N/A   Clear
10:16 PM 76.8 °F - 72.5 °F 86% 29.91 in 10.0 mi SSW 4.6 mph - N/A   Clear
10:35 PM 76.5 °F - 72.5 °F 87% 29.91 in 10.0 mi SSW 4.6 mph - N/A   Clear
10:40 PM 76.3 °F - 72.5 °F 88% 29.91 in 10.0 mi SSW 5.8 mph - N/A   Clear
10:58 PM 76.1 °F - 72.5 °F 89% 29.91 in 10.0 mi SSW 4.6 mph - N/A   Clear
11:16 PM 76.1 °F - 72.5 °F 89% 29.91 in 10.0 mi SSW 3.5 mph - N/A   Clear
11:35 PM 75.4 °F - 72.3 °F 90% 29.90 in 10.0 mi South 4.6 mph - N/A   Clear
11:36 PM 75.4 °F - 72.1 °F 90% 29.91 in 10.0 mi South 4.6 mph - N/A   Clear
11:55 PM 75.2 °F - 71.8 °F 89% 29.90 in 7.0 mi Calm Calm - N/A   Clear
11:56 PM 75.0 °F - 71.8 °F 90% 29.90 in 7.0 mi Calm Calm - N/A   Clear